Regional Weather Roundup
Issued by NWS Upton, NY

Current Version | Previous Version | Graphics & Text | Print | Product List | Glossary Off
Versions: 1 2 3 4 5 6 7 8 9 10 11 12 13 14 15 16 17 18 19 20 21 22 23 24 25 26 27

000
ASUS41 KOKX 100608
RWROKX

REGIONAL WEATHER ROUNDUP
NATIONAL WEATHER SERVICE NEW YORK NY
100 AM EST SAT DEC 10 2016

NOTE: "FAIR" INDICATES FEW OR NO CLOUDS BELOW 12,000 FEET WITH NO
SIGNIFICANT WEATHER AND/OR OBSTRUCTIONS TO VISIBILITY.

NYZ071-072-176-178-NJZ106-104-100700-
NEW YORK CITY METRO AREA

CITY           SKY/WX    TMP DP  RH WIND       PRES   REMARKS
Central Park   CLEAR     30  14  51 NW5       30.30R WCI  25
Wall St Helipt CLEAR     32  19  58 W7        30.30R WCI  26
Bronx Bot Gard NOT AVBL
LaGuardia APRT CLEAR     32  15  49 NW13      30.28S WCI  22
Kennedy INTL   PTCLDY    31  12  45 NW16      30.30R WCI  20
Breezy Point     N/A    N/A N/A N/A W9          N/A
Newark/Liberty PTCLDY    29  14  53 W6        30.29S WCI  23
Teterboro      CLEAR     29  13  51 CALM      30.28S
$$

NYZ177-179-078>081-100700-
LONG ISLAND NEW YORK

CITY           SKY/WX    TMP DP  RH WIND       PRES   REMARKS
Jones Beach      N/A    N/A N/A N/A NW16G22     N/A
Matinecock PT    N/A     32 N/A N/A NW18        N/A  WCI  20
Farmingdale    CLEAR     29  14  53 NW7       30.27R WCI  22
MacArthur/ISP  CLEAR     27  14  58 NW7       30.25R WCI  19
Shirley        CLEAR     28  14  55 NW8       30.26R WCI  20
Westhampton    NOT AVBL
Southampton    NOT AVBL
Bridgehampton  NOT AVBL
East Hampton     N/A     28  12  52 NW13      30.22F WCI  17
Montauk          N/A     29  13  51 NW20G30   30.23F WCI  16
$$

NYZ052-065-067-100700-
HUDSON VALLEY

CITY           SKY/WX    TMP DP  RH WIND       PRES   REMARKS
White Plains   CLEAR     27  15  61 NW17G25   30.23S WCI  14
Newburgh       NOT AVBL
Montgomery     CLEAR     20  14  77 CALM      30.25S
Poughkeepsie   CLEAR     20  13  74 CALM      30.26S
Albany         PTCLDY    19  11  70 NW6       30.27R WCI  11
$$

NJZ001-105-106-008-010-013-015-019>022-104-100700-
NEW JERSEY

CITY           SKY/WX    TMP DP  RH WIND       PRES   REMARKS
Newark/Liberty PTCLDY    29  14  53 W6        30.29S WCI  23
Teterboro      CLEAR     29  13  51 CALM      30.28S
Caldwell       CLEAR     27  14  58 CALM      30.29S
Somerville     CLEAR     27  16  63 CALM      30.29R
Linden           N/A    N/A N/A N/A W7        30.30S
Sussex         CLEAR     22  14  71 W3        30.26R
Andover          N/A     22  14  71 CALM      30.27R
Trenton        CLEAR     28  20  71 W6        30.32R WCI  22
Millville      PTCLDY    29  20  69 W8        30.38R WCI  21
Atlantic City  CLEAR     29  17  61 W9        30.36R WCI  20
Wrightstown    CLEAR     28  20  71 W7        30.31R WCI  21
Toms River     CLEAR     25  20  81 SW8       30.34R WCI  16
Belmar         CLEAR     25  20  81 W8        30.31R WCI  16
$$

PAZ047>061-062-071-100700-
EASTERN PENNSYLVANIA

CITY           SKY/WX    TMP DP  RH WIND       PRES   REMARKS
Philadelphia   MOCLDY    31  18  58 W13       30.38R WCI  21
Allentown      MOCLDY    23  18  81 SW6       30.31R WCI  16
Scranton       CLOUDY    25  15  66 SW5       30.26S WCI  19
$$

CTZ002-004>006-009-010-012-RIZ004-006-007-MAZ004-011-015-100700-
SOUTHERN NEW ENGLAND
 IN CT

CITY           SKY/WX    TMP DP  RH WIND       PRES   REMARKS
Bradley INTL   CLEAR     21  10  62 W8        30.23S WCI  11
Hartford       CLEAR     25  11  55 NW6       30.25S WCI  18
Danbury        CLEAR     21  12  68 CALM      30.25S
Wtrbury/Oxford CLEAR     23  10  58 NW8       30.21S WCI  14
Bridgeport     CLEAR     27  12  53 NW5       30.26S WCI  22
Meriden        PTCLDY    27  10  49 NW8       30.24F WCI  19
New Haven      CLEAR     27  13  55 NW8       30.25F WCI  19
Chester          N/A     25  10  54 NW8G15    30.21S WCI  16
Groton         CLEAR     28  10  46 NW12      30.22F WCI  18
Wilimantic     CLEAR     26  11  52 W9        30.23R WCI  17

 IN RI

CITY           SKY/WX    TMP DP  RH WIND       PRES   REMARKS
Providence     CLEAR     24   7  48 W7        30.22R WCI  16
Block Island   CLEAR     27  13  55 NW16G25   30.21F WCI  15
Westerly       CLEAR     26   9  48 NW6       30.23S WCI  19
 IN MA

CITY           SKY/WX    TMP DP  RH WIND       PRES   REMARKS
Boston         PTCLDY    25   9  50 NW10G23   30.19S WCI  15
Worcester      CLEAR     19   4  51 NW10      30.14R WCI   7
Westfield      CLEAR     22  11  62 NW9       30.22R WCI  12
Provincetown   CLOUDY    28  15  58 NW20      30.17R WCI  15
Nantucket      CLOUDY    29  12  49 NW16      30.17S WCI  17
$$

ANZ330-335-338-340-345-350-353-355-100700-
COASTAL MARINE OBSERVATIONS


STATION/POSITION TIME  SKY/WX   TEMP    WIND        PRES    VSBY  WAVE
                                AIR SEA DIR/SP/G                  HT/PER
                 (UTC)          (F)     (DEG/KT/KT) (MB)    (MI)  (FT/S)
NY HARB ENTRANCE 0450            34 51  320/ 21/ 27 1024.7          3/ 4
20 S FIRE ISLAND 0450            34 52  330/ 25/ 33 1023.9          6/ 6
GREAT SOUTH BAY  0530            31 40                N/A
23 SSW MONTAUK P 0450            33 54  310/ 21/ 27 1023.9          5/ 6
15 E BARNEGAT LI 0530               51                N/A           5/ 5
HUDSON CANYON    0450            38 56              1023.7         10/ 7
KINGS POINT      0548                               1025.4
EXECUTION ROCKS  0545            32     300/ 12/ 17   N/A
CENTRAL LI SOUND 0530            31 48  320/ 19/ 25   N/A           3/ 4
EASTERN LI SOUND NOT AVBL
ROBBINS REEF     0548                   280/  9/ 12 1025.9
$$


>>>>>>>>>>>>>>>>>>>>>>>>>>>> KEY <<<<<<<<<<<<<<<<<<<<<<<<<<<
>                                                          <
>     SKY/WX - Sky Condition/Present Weather               <
>     TMP    - Temperature in Fahrenheit                   <
>     DP     - Dew Point in Fahrenheit                     <
>     RH     - Relative Humidity in Percent                <
>     WIND   - Direction (from) and Speed in MPH           <
>     PRES   - Mean Sea Level Pressure (inches of Hg)      <
>     WCI    - Wind Chill Index                            <
>     VSB    - VISIBILITY IN MILES                         <
>     HX     - HEAT INDEX                                  <
>     TC     - TEMPERATURE IN CELSIUS                      <
>     VRB    - VARIABLE WIND DIRECTION                     <
>                                                          <
>>>>>>>>>>>>>>>>>>>>>>>>>>>> KEY <<<<<<<<<<<<<<<<<<<<<<<<<<<




USA.gov is the U.S. government's official web portal to all federal, state and local government web resources and services.